Change the Weather History Date:

Saturday, May 18, 2013

  Actual Average Record
Temperature  
Mean Temperature 75 °F -  
Max Temperature 86 °F 86 °F 97 °F (2008)
Min Temperature 66 °F 68 °F 54 °F (2011)
Cooling Degree Days 10    
Growing Degree Days 25 (Base 50)    
Moisture  
Dew Point 68 °F    
Average Humidity 74    
Maximum Humidity 93    
Minimum Humidity 60    
Precipitation  
Precipitation 0.00 in - - ()
Sea Level Pressure  
Sea Level Pressure 30.09 in    
Wind  
Wind Speed 7 mph (SE)    
Max Wind Speed 16 mph    
Max Gust Speed -    
Visibility 9 miles    
Events      
Averages and records for this station are not official NWS values.
T = Trace of Precipitation, MM = Missing Value Source: NWS Daily Summary

Daily Weather History Graph

Daily Weather History Graph

Search for Another Location

Airport or City:

Trip Planner

Search our weather history database for the weather conditions in past years. The results will help you decide how hot, cold, wet, or windy it might be!

Date:

Astronomy

May. 18, 2013 Rise Set
Actual Time 6:31 AM EDT 8:05 PM EDT
Civil Twilight 6:05 AM EDT 8:30 PM EDT
Nautical Twilight 5:34 AM EDT 9:01 PM EDT
Astronomical Twilight 5:02 AM EDT 9:33 PM EDT
Moon 1:41 PM EDT (5/18) 1:45 AM EDT (5/18)
Length of Visible Light 14h 25m
Length of Day
13h 34m
First Quarter, 55% of the Moon is Illuminated
May 18
First Quarter
May 25
Full
May 31
Last Quarter
Jun 8
New
Jun 16
First Quarter

Hourly Weather History & Observations

Time (EDT) Temp. Heat Index Dew Point Humidity Pressure Visibility Wind Dir Wind Speed Gust Speed Precip Events Conditions
12:53 AM 75.9 °F - 68.0 °F 76% 30.10 in 10.0 mi SE 8.1 mph - N/A   Clear
1:53 AM 73.9 °F - 68.0 °F 82% 30.09 in 10.0 mi SSE 4.6 mph - N/A   Clear
2:53 AM 71.1 °F - 66.9 °F 87% 30.08 in 10.0 mi Calm Calm - N/A   Clear
3:53 AM 68.0 °F - 66.0 °F 93% 30.07 in 8.0 mi Calm Calm - N/A   Clear
4:53 AM 66.9 °F - 64.9 °F 93% 30.07 in 6.0 mi Calm Calm - N/A   Clear
5:53 AM 66.9 °F - 64.0 °F 90% 30.08 in 5.0 mi Calm Calm - N/A   Clear
6:53 AM 66.9 °F - 64.0 °F 90% 30.09 in 6.0 mi Calm Calm - N/A   Clear
7:53 AM 75.0 °F - 70.0 °F 84% 30.11 in 10.0 mi SSE 3.5 mph - N/A   Clear
8:53 AM 80.1 °F 82.9 °F 69.1 °F 69% 30.12 in 10.0 mi Variable 3.5 mph - N/A   Clear
9:53 AM 82.0 °F 84.5 °F 66.9 °F 60% 30.12 in 10.0 mi SSE 4.6 mph - N/A   Scattered Clouds
10:53 AM 84.0 °F 89.0 °F 71.1 °F 65% 30.12 in 10.0 mi East 10.4 mph - N/A   Scattered Clouds
11:53 AM 84.9 °F 89.4 °F 70.0 °F 61% 30.12 in 10.0 mi East 6.9 mph - N/A   Scattered Clouds
12:53 PM 84.0 °F 88.4 °F 70.0 °F 63% 30.10 in 10.0 mi ESE 13.8 mph - N/A   Scattered Clouds
1:53 PM 84.0 °F 88.4 °F 70.0 °F 63% 30.09 in 10.0 mi SE 16.1 mph - N/A   Scattered Clouds
2:53 PM 84.2 °F 88.4 °F 69.8 °F 62% 30.08 in 10.0 mi ESE 12.7 mph - N/A   Scattered Clouds
3:53 PM 84.0 °F 87.8 °F 69.1 °F 61% 30.06 in 10.0 mi SE 13.8 mph - N/A   Scattered Clouds
4:53 PM 81.0 °F 84.1 °F 69.1 °F 67% 30.05 in 10.0 mi SE 12.7 mph - N/A   Partly Cloudy
5:53 PM 82.0 °F 85.5 °F 69.1 °F 65% 30.06 in 10.0 mi SE 16.1 mph - N/A   Partly Cloudy
6:53 PM 81.0 °F 84.1 °F 69.1 °F 67% 30.06 in 10.0 mi ESE 16.1 mph - N/A   Scattered Clouds
7:53 PM 79.0 °F - 70.0 °F 74% 30.07 in 10.0 mi ESE 11.5 mph - N/A   Scattered Clouds
8:53 PM 78.1 °F - 69.1 °F 74% 30.07 in 10.0 mi SE 11.5 mph - N/A   Scattered Clouds
9:08 PM 78.8 °F - 69.8 °F 74% 30.07 in 10.0 mi SE 13.8 mph - N/A   Mostly Cloudy
9:18 PM 78.8 °F - 69.8 °F 74% 30.07 in 10.0 mi SE 15.0 mph - N/A   Scattered Clouds
9:53 PM 78.1 °F - 69.1 °F 74% 30.09 in 10.0 mi SE 15.0 mph - N/A   Partly Cloudy
10:53 PM 78.1 °F - 69.1 °F 74% 30.09 in 10.0 mi SSE 10.4 mph - N/A   Scattered Clouds
11:53 PM 78.8 °F - 68.0 °F 69% 30.10 in 10.0 mi SSE 6.9 mph - N/A   Overcast